Find Kosmos-1541

NORAD ID: 14790 Int'l Des: 1984-024 Owner: PVO Country: SU operational
MEOELLIPTICALHEO_ELLIPTICALSEMI_SYNC

当前视图

正在加载3D地球...

关于 Kosmos-1541

正在加载描述...

即将过境

Passes for default location (London). Set your location on the main map for personalized predictions.

高度历史

Loading altitude history...

两行轨道根数

1 14790U 84024A 26150.08563213 .00000193 00000-0 00000+0 0 9993
2 14790 71.7118 149.1110 5125705 341.0777 230.9780 2.00590184281570
Epoch: May 30, 2026 • Age: 16 hours

当前状态

高度 7109.4 km
速度 6.64 km/s
星下点 -43.91°S, 28.39°W
发射日期 Mar 6, 1984
运行时间 42.2 years
类型 other

技术详情

分类 Payload
质量 1250.00 kg
干质量 1150.00 kg
总质量 1250.00 kg
长度 4.00 m
直径 2.00 m
跨度 5.00 m
形状 Cyl + 2 Pan
制造商 NPOL/KOMET
平台类型 Oko
阶段状态 In Orbit
所有者/国家 PVO/SU

Most Searched